When you browse on this site, cookies collect data to enhance your experience and personalize the content and advertising you see.
Visit our Privacy Policy to learn more. By continuing to use the site, you agree to this use of cookies and data.
  • In Latvia
  • List of Countries
  • For 7 days
  • Water Temperature
  • Satellite Maps
  • Weather Map
  • Weather Widgets
  • user-avatar
    Login

    Hourly Weather Frankfurt am Mein

    Today, 20 January, Sunday

    Time Temperature Precipitation Wind Pressure Humidity
    00:00 -5°C° 0 mm 2 mps 719 mmHg 66%
    01:00 -3°C° 0 mm 1 mps 719 mmHg 67%
    02:00 -4°C° 0 mm 1 mps 719 mmHg 69%
    03:00 -4°C° 0 mm 1 mps 719 mmHg 70%
    04:00 -4°C° 0 mm 1 mps 718 mmHg 71%
    05:00 -4°C° 0 mm 1 mps 718 mmHg 72%
    06:00 -4°C° 0 mm 1 mps 719 mmHg 73%
    07:00 -7°C° 0 mm 2 mps 719 mmHg 72%
    08:00 -7°C° 0 mm 2 mps 719 mmHg 70%
    09:00 -6°C° 0 mm 2 mps 719 mmHg 68%
    10:00 -6°C° 0 mm 2 mps 720 mmHg 66%
    11:00 -5°C° 0 mm 2 mps 720 mmHg 63%
    12:00 -4°C° 0 mm 2 mps 720 mmHg 59%
    13:00 -3°C° 0 mm 2 mps 721 mmHg 56%
    14:00 -3°C° 0 mm 2 mps 721 mmHg 57%
    15:00 -3°C° 0 mm 2 mps 721 mmHg 58%
    16:00 -3°C° 0 mm 2 mps 721 mmHg 59%
    17:00 -2°C° 0 mm 1 mps 721 mmHg 62%
    18:00 -3°C° 0 mm 1 mps 721 mmHg 65%
    19:00 -3°C° 0 mm 1 mps 722 mmHg 69%
    20:00 -3°C° 0 mm 1 mps 722 mmHg 68%
    21:00 -4°C° 0 mm 1 mps 723 mmHg 68%
    22:00 -4°C° 0 mm 1 mps 723 mmHg 68%
    23:00 -4°C° 0 mm 1 mps 723 mmHg 68%

    Tomorrow, 21 January, Monday

    Time Temperature Precipitation Wind Pressure Humidity
    00:00 -4°C° 0 mm 1 mps 724 mmHg 68%
    01:00 -4°C° 0 mm 1 mps 724 mmHg 69%
    02:00 -4°C° 0 mm 1 mps 724 mmHg 69%
    03:00 -4°C° 0 mm 1 mps 724 mmHg 70%
    04:00 -6°C° 0 mm 1 mps 724 mmHg 70%
    05:00 -6°C° 0 mm 1 mps 724 mmHg 71%
    06:00 -6°C° 0 mm 1 mps 724 mmHg 72%
    07:00 -6°C° 0 mm 1 mps 724 mmHg 73%
    08:00 -6°C° 0 mm 1 mps 725 mmHg 71%
    09:00 -4°C° 0 mm 1 mps 725 mmHg 69%
    10:00 -5°C° 0 mm 0 mps 725 mmHg 67%
    11:00 -4°C° 0 mm 0 mps 725 mmHg 63%
    12:00 -2°C° 0 mm 0 mps 725 mmHg 59%
    13:00 -1°C° 0 mm 0 mps 725 mmHg 55%
    14:00 -2°C° 0 mm 0 mps 724 mmHg 56%
    15:00 -2°C° 0 mm 0 mps 724 mmHg 57%
    16:00 -2°C° 0 mm 0 mps 724 mmHg 58%
    17:00 -3°C° 0 mm 0 mps 723 mmHg 61%
    18:00 -3°C° 0 mm 0 mps 723 mmHg 64%
    19:00 -4°C° 0 mm 0 mps 723 mmHg 67%
    20:00 -4°C° 0 mm 0 mps 723 mmHg 68%
    21:00 -3°C° 0 mm 1 mps 723 mmHg 68%
    22:00 -3°C° 0 mm 1 mps 722 mmHg 68%
    23:00 -4°C° 0 mm 1 mps 722 mmHg 69%

    Day after tomorrow, 22 January, Tuesday

    Time Temperature Precipitation Wind Pressure Humidity
    00:00 -4°C° 0 mm 1 mps 721 mmHg 70%
    01:00 -4°C° 0 mm 1 mps 721 mmHg 71%
    02:00 -4°C° 0 mm 1 mps 720 mmHg 71%
    03:00 -4°C° 0 mm 1 mps 719 mmHg 72%
    04:00 -4°C° 0 mm 1 mps 719 mmHg 73%
    05:00 -7°C° 0 mm 2 mps 718 mmHg 74%
    06:00 -7°C° 0 mm 2 mps 717 mmHg 74%
    07:00 -7°C° 0 mm 2 mps 717 mmHg 75%
    08:00 -6°C° 0 mm 2 mps 716 mmHg 73%
    09:00 -6°C° 0 mm 2 mps 716 mmHg 70%
    10:00 -7°C° 0 mm 3 mps 715 mmHg 68%
    11:00 -6°C° 0 mm 3 mps 714 mmHg 65%
    12:00 -5°C° 0 mm 3 mps 713 mmHg 63%
    13:00 -4°C° 0 mm 3 mps 713 mmHg 60%
    14:00 -4°C° 0 mm 3 mps 712 mmHg 61%
    15:00 -3°C° 0 mm 2 mps 711 mmHg 61%
    16:00 -3°C° 0 mm 2 mps 710 mmHg 62%
    17:00 -3°C° 0 mm 2 mps 710 mmHg 64%
    18:00 -4°C° 0 mm 2 mps 710 mmHg 67%
    19:00 -3°C° 0 mm 1 mps 709 mmHg 70%
    20:00 -3°C° 0 mm 1 mps 709 mmHg 73%
    21:00 -3°C° 0 mm 1 mps 709 mmHg 75%
    22:00 -3°C° 0 mm 1 mps 709 mmHg 77%
    23:00 -4°C° 0 mm 1 mps 708 mmHg 79%

    23 January, Wednesday

    Time Temperature Precipitation Wind Pressure Humidity
    00:00 -4°C° 0 mm 1 mps 708 mmHg 81%
    01:00 -5°C° 0 mm 0 mps 708 mmHg 83%
    02:00 -5°C° 0 mm 0 mps 707 mmHg 84%
    03:00 -5°C° 0 mm 0 mps 707 mmHg 86%
    04:00 -5°C° 0 mm 0 mps 707 mmHg 87%
    05:00 -5°C° 0 mm 0 mps 707 mmHg 88%
    06:00 -5°C° 0 mm 0 mps 707 mmHg 88%
    07:00 -5°C° 0 mm 0 mps 707 mmHg 88%
    08:00 -5°C° 0 mm 0 mps 708 mmHg 86%
    09:00 -4°C° 0 mm 0 mps 708 mmHg 83%
    10:00 -4°C° 0 mm 0 mps 709 mmHg 81%
    11:00 -3°C° 0 mm 0 mps 709 mmHg 76%
    12:00 -2°C° 0 mm 0 mps 709 mmHg 72%
    13:00 -1°C° 0 mm 0 mps 710 mmHg 67%
    14:00 -1°C° 0 mm 0 mps 710 mmHg 69%
    15:00 -1°C° 0 mm 0 mps 710 mmHg 71%
    16:00 -1°C° 0 mm 0 mps 710 mmHg 73%
    17:00 -2°C° 0 mm 0 mps 711 mmHg 77%
    18:00 -3°C° 0 mm 0 mps 711 mmHg 81%
    19:00 -3°C° 0 mm 0 mps 712 mmHg 85%
    20:00 -2°C° 0 mm 1 mps 712 mmHg 86%
    21:00 -2°C° 0 mm 1 mps 712 mmHg 87%
    22:00 -2°C° 0 mm 1 mps 713 mmHg 88%
    23:00 -2°C° 0 mm 1 mps 713 mmHg 89%

    24 January, Thursday

    Time Temperature Precipitation Wind Pressure Humidity
    00:00 -2°C° 0 mm 1 mps 713 mmHg 90%
    01:00 -2°C° 0 mm 1 mps 713 mmHg 91%
    02:00 -2°C° 0 mm 1 mps 713 mmHg 92%
    03:00 -3°C° 0 mm 1 mps 713 mmHg 93%
    04:00 -3°C° 0 mm 1 mps 714 mmHg 94%
    05:00 -2°C° 0 mm 1 mps 714 mmHg 93%
    06:00 -2°C° 0 mm 1 mps 714 mmHg 92%
    07:00 -2°C° 0 mm 1 mps 714 mmHg 91%
    08:00 -1°C° 0 mm 1 mps 715 mmHg 90%
    09:00 -3°C° 0 mm 2 mps 715 mmHg 88%
    10:00 -3°C° 0 mm 2 mps 715 mmHg 87%
    11:00 -2°C° 0 mm 2 mps 715 mmHg 84%
    12:00 -2°C° 0 mm 2 mps 715 mmHg 80%
    13:00 -1°C° 0 mm 2 mps 715 mmHg 77%
    14:00 -1°C° 0 mm 2 mps 715 mmHg 76%
    15:00 -1°C° 0 mm 2 mps 715 mmHg 76%
    16:00 -1°C° 0 mm 2 mps 715 mmHg 76%
    17:00 0°C° 0 mm 1 mps 716 mmHg 79%
    18:00 -1°C° 0 mm 1 mps 716 mmHg 83%
    19:00 -2°C° 0 mm 1 mps 716 mmHg 87%
    20:00 -2°C° 0 mm 1 mps 717 mmHg 88%
    21:00 -2°C° 0 mm 1 mps 717 mmHg 89%
    22:00 -2°C° 0 mm 1 mps 718 mmHg 90%
    23:00 -2°C° 0 mm 1 mps 718 mmHg 90%

    25 January, Friday

    Time Temperature Precipitation Wind Pressure Humidity
    00:00 -2°C° 0 mm 1 mps 718 mmHg 90%
    01:00 -3°C° 0 mm 1 mps 718 mmHg 91%
    02:00 -3°C° 0 mm 1 mps 719 mmHg 90%
    03:00 -3°C° 0 mm 1 mps 719 mmHg 90%
    04:00 -3°C° 0 mm 1 mps 719 mmHg 90%
    05:00 -3°C° 0 mm 1 mps 720 mmHg 90%
    06:00 -3°C° 0 mm 1 mps 720 mmHg 91%
    07:00 -3°C° 0 mm 1 mps 721 mmHg 92%
    08:00 -3°C° 0 mm 1 mps 721 mmHg 89%
    09:00 -4°C° 0 mm 2 mps 722 mmHg 87%
    10:00 -4°C° 0 mm 2 mps 723 mmHg 85%
    11:00 -3°C° 0 mm 2 mps 723 mmHg 80%
    12:00 -3°C° 0 mm 2 mps 723 mmHg 76%
    13:00 -2°C° 0 mm 2 mps 723 mmHg 72%
    14:00 -2°C° 0 mm 2 mps 724 mmHg 71%
    15:00 -2°C° 0 mm 2 mps 724 mmHg 71%
    16:00 -2°C° 0 mm 2 mps 724 mmHg 70%
    17:00 -3°C° 0 mm 2 mps 724 mmHg 73%
    18:00 -1°C° 0 mm 1 mps 725 mmHg 75%
    19:00 -1°C° 0 mm 1 mps 725 mmHg 78%
    20:00 -2°C° 0 mm 1 mps 725 mmHg 80%
    21:00 -2°C° 0 mm 1 mps 726 mmHg 82%
    22:00 -3°C° 0 mm 1 mps 726 mmHg 84%
    23:00 -4°C° 0 mm 0 mps 726 mmHg 84%
    Show more